Air Resources Laboratory banner image
Air Resources Laboratory web site National Oceanic and Atmospheric Administration (NOAA)

nc roundup


Office: RAH

ASUS42 KRAH 161610
RWRRAH
NORTH CAROLINA WEATHER ROUNDUP
NATIONAL WEATHER SERVICE RALEIGH NC
1200 PM EDT MON JUL 16 2018

NOTE: "FAIR" INDICATES FEW OR NO CLOUDS BELOW 12,000 FEET WITH NO
SIGNIFICANT WEATHER AND/OR OBSTRUCTIONS TO VISIBILITY.

NCZ001-053-055-056-065-067-161700-
WESTERN NORTH CAROLINA

CITY           SKY/WX    TMP DP  RH WIND       PRES   REMARKS
ASHEVILLE      FAIR      79  70  74 W5        30.14F
JEFFERSON      FAIR      74  65  75 SE3       30.19S
MORGANTON      DRIZZLE   78  71  80 CALM      30.13S
HICKORY        FAIR      80  73  79 CALM      30.09S
RUTHERFORDTON  NOT AVBL
MOUNT AIRY     FAIR      83  75  77 CALM      30.10S
BOONE          CLOUDY    78  64  61 CALM      30.19S
$$

NCZ021-022-025-041-071-084-088-161700-
CENTRAL NORTH CAROLINA

CITY           SKY/WX    TMP DP  RH WIND       PRES   REMARKS
CHARLOTTE      CLOUDY    82  75  79 SW6       30.09R
GREENSBORO     CLOUDY    84  73  69 W9        30.07S
WINSTON-SALEM  FAIR      82  73  74 SW5       30.09R
RALEIGH-DURHAM CLOUDY    89  72  56 SW9       30.05S HX  96
FORT BRAGG     FAIR      87  71  59 CALM      30.05S
FAYETTEVILLE   FAIR      86  70  58 SW8       30.06S
BURLINGTON     FAIR      88  71  57 SW6       30.05S
LAURINBURG     FAIR      86  73  65 W7        30.07S
$$

NCZ011-015-027-028-043-044-047-080-103-161700-
NORTHEASTERN NORTH CAROLINA

CITY           SKY/WX    TMP DP  RH WIND       PRES   REMARKS
ROCKY MT-WILSO FAIR      87  70  56 SW8       30.05F
GREENVILLE     FAIR      88  68  51 SW8       30.07S
WASHINGTON     FAIR      86  72  62 S7        30.06F
ELIZABETH CITY FAIR      84  72  67 S10       30.06S
MANTEO         FAIR      83  74  75 S14       30.07S
CAPE HATTERAS  FAIR      84  75  74 S7        30.08F
$$

NCZ078-087-090-091-093-098-101-161700-
SOUTHEASTERN NORTH CAROLINA

CITY           SKY/WX    TMP DP  RH WIND       PRES   REMARKS
LUMBERTON      FAIR      85  70  60 S7        30.06S
GOLDSBORO      PTSUNNY   87  69  55 S9        30.04F
KINSTON        SUNNY     84  68  58 S6        30.07S
KENANSVILLE    FAIR      84  68  58 CALM      30.08R
NEW BERN       FAIR      84  75  74 S6        30.08S
CHERRY POINT   CLOUDY    85  78  80 S8        30.07F HX  96
BEAUFORT       FAIR      82  76  81 SW9       30.07F
JACKSONVILLE   FAIR      85  76  74 VRB6      30.06S
WILMINGTON     FAIR      85  73  67 SE3       30.07R
$$





Office: AKQ ASUS41 KAKQ 161615 RWRAKQ REGIONAL WEATHER ROUNDUP NATIONAL WEATHER SERVICE WAKEFIELD VA 1200 PM EDT MON JUL 16 2018 Note: "fair" indicates few or no clouds below 12,000 feet with no significant weather and/or obstructions to visibility. * = Denotes station may not report precipitation (e.g., rain,snow,etc.), thunder or fog. VAZ042-051-052>054-056-161700- NORTHERN VIRGINIA CITY SKY/WX TMP DP RH WIND PRES REMARKS WASH NATIONAL FAIR 90 72 55 SE3 29.99F HX 97 DULLES FAIR 90 71 53 N5 30.00F HX 96 FORT BELVOIR SUNNY 90 74 60 S6 29.99F HX 99 QUANTICO FAIR 81 77 88 S7 30.01R FREDERICKSBRG* FAIR 87 76 69 SE5 30.00S HX 97 STAFFORD* FAIR 89 75 63 S3 30.04S HX 99 WARRENTON FAIR 89 72 57 CALM 30.00F HX 96 CULPEPER* FAIR 89 73 59 CALM 30.01S HX 97 MANASSAS* FAIR 89 76 65 S8 30.00F HX 100 LEESBURG* FAIR 90 72 55 SE6 30.01F HX 96 WINCHESTER FAIR 82 68 61 CALM 30.03F FRONT ROYAL* FAIR 86 73 66 CALM 30.01F LURAY* FAIR 86 72 62 CALM 30.03F $$ VAZ048-049-060>072-079>083-161700- CENTRAL AND SOUTH CENTRAL VIRGINIA CITY SKY/WX TMP DP RH WIND PRES REMARKS RICHMOND PTSUNNY 82 72 71 S6 30.03R CHESTERFIELD* FAIR 81 73 76 S5 30.03S PETERSBURG* FAIR 82 71 71 SE3 30.04S HANOVER FAIR 84 72 67 S5 30.03S TAPPAHANNOCK* FAIR 82 73 74 S6 30.03S QUINTON* FAIR 80 72 77 CALM 30.02S CHARLOTTSVILLE CLOUDY 89 72 56 CALM 30.02S HX 96 GORDONSVILLE* CLOUDY 87 78 74 S5 30.01S HX 98 ORANGE* PTSUNNY 86 73 66 SE5 30.01S LOUISA* FAIR 86 75 69 S3 30.06S HX 95 BUMPASS* FAIR 86 73 66 CALM 30.02S FARMVILLE* FAIR 83 74 73 CALM 30.02S CREWE* FAIR 85 79 81 SE5 30.03S HX 99 FORT PICKETT* FAIR 85 75 71 S3 30.04R CHASE CITY* FAIR N/A N/A N/A S6 30.04S CLARKSVILLE* FAIR 82 72 69 S5 30.04S SOUTH HILL* FAIR 88 75 65 SW7 30.09S HX 97 LAWRENCEVILLE* FAIR 88 73 59 MISG 30.03F HX 95 EMPORIA* FAIR 84 72 65 SE6 30.05R $$ VAZ088>098-161700- SOUTHEAST VIRGINIA CITY SKY/WX TMP DP RH WIND PRES REMARKS NORFOLK FAIR 89 75 63 S8 30.03F HX 99 VIRGINIA BEACH PTSUNNY 85 68 56 SW13 30.03S NORFOLK NAVAL CLOUDY 87 71 58 SW10 30.05S WEST POINT* FAIR 82 72 72 S5 30.04S SALUDA* FAIR 82 75 78 SW6 30.02S NEWPORT NEWS FAIR 84 71 65 S6 30.04S LANGLEY AFB PTSUNNY 84 72 66 SW6 30.04S FORT EUSTIS MOSUNNY 83 73 70 S6 30.01F WILLIAMSBURG* FAIR 84 70 61 CALM 30.04F HR EXEC AP* FAIR 86 72 62 S8 30.05R FRANKLIN* FAIR 84 73 67 S7 30.04S US460-WAKEFLD FAIR 85 73 67 CALM 30.03S $$ VAZ020-022-025-037-045-161700- WEST CENTRAL AND SOUTHWEST VIRGINIA CITY SKY/WX TMP DP RH WIND PRES REMARKS STAUNTON* FAIR 85 71 63 S3 30.07F WAYNESBORO* CLOUDY 83 71 69 CALM 30.07S HOT SPRINGS VA FAIR 75 73 94 SW3 30.21S LYNCHBURG FAIR 88 70 55 W3 30.05S DANVILLE FAIR 83 76 79 VRB3 30.05R SOUTH BOSTON* FAIR 85 71 63 W3 30.04S MARTINSVILLE FAIR 83 73 72 CALM 30.09S ROANOKE PTSUNNY 85 69 58 CALM 30.08S BLACKSBURG FAIR 84 70 62 W5 30.15S DUBLIN* FAIR 84 67 57 S5 30.13S MARION* FAIR 81 69 67 W7 30.17F HILLSVILLE* PTSUNNY 78 69 73 S5 30.16R RICHLANDS* PTSUNNY 78 68 71 W6 30.16F WISE* CLOUDY 72 72 100 SW5 30.17S ABINGDON* PTSUNNY 81 70 70 W5 30.14S $$ MDZ021>025-VAZ099-100-161700- SOUTHERN MARYLAND AND THE DELMARVA PENINSULA CITY SKY/WX TMP DP RH WIND PRES REMARKS PATUXENT RIVER PTSUNNY 85 73 67 SW8 30.00S BAY BRIDGE APT FAIR 90 73 58 S6 30.00S HX 98 LEONARDTOWN FAIR 88 72 58 SE5 30.02S DOVER MOSUNNY 90 72 54 E8 29.99S HX 97 GEORGETOWN FAIR 88 73 61 SW9 30.01F HX 95 EASTON SUNNY 91 72 52 W5 30.04S HX 98 CAMBRIDGE SUNNY 84 73 70 VRB6 30.01S SALISBURY FAIR 87 73 62 S8 30.01S TANGIER FAIR 82 75 78 S7 30.02S OCEAN CITY FAIR 83 74 74 S9 30.02F WALLOPS ISLAND FAIR 83 75 77 S9 30.03S ACCOMACK* FAIR 85 73 66 S5 30.03S $$ NCZ012>017-030>032-161700- NORTH CENTRAL AND EASTERN NORTH CAROLINA CITY SKY/WX TMP DP RH WIND PRES REMARKS ROANOKE RAPIDS FAIR 81 72 74 S6 30.05S RALEIGH CLOUDY 89 72 56 SW9 30.05S HX 96 ELIZABETH CITY FAIR 84 72 67 S10 30.06S AHOSKIE* FAIR 80 72 75 MISG 30.06R EDENTON* FAIR 86 75 68 S8 30.06S HX 95 CURRITUCK* FAIR 86 71 61 MISG 30.06S KILL DEVIL HLS N/A 83 72 69 CALM 30.06S MANTEO FAIR 83 74 75 S14 30.07S CAPE HATTERAS FAIR 84 75 74 S7 30.08F TARBORO* NOT AVBL GOLDSBORO PTSUNNY 87 69 55 S9 30.04F WASHINGTON FAIR 86 72 62 S7 30.06F GREENVILLE FAIR 88 68 51 SW8 30.07S NEW BERN FAIR 84 75 74 S6 30.08S WILMINGTON FAIR 85 73 67 SE3 30.07R $$ VAZ048-161700- ELSEWHERE CITY SKY/WX TMP DP RH WIND PRES REMARKS HARRISBURG PA FAIR 88 71 57 SE5 29.98F BALTIMORE FAIR 91 71 51 VRB6 29.98F HX 97 ANNAPOLIS FAIR 87 76 69 SE10 29.99F HX 97 ANDREWS AFB FAIR 91 71 51 CALM 29.99F HX 97 PHILADELPHIA FAIR 88 68 51 SW12 29.99S HENDERSON NC N/A 82 71 68 S3 30.05S GREENSBORO CLOUDY 84 73 69 W9 30.07S ROCKY MOUNT FAIR 87 70 56 SW8 30.05F $$ VAZ100-161700- MARINE STATION/POSITION TIME TEMP WIND PRES WAVE SWELL AIR SEA DIR/SP/G HT/PER HT/PER (UTC) (F) (DEG/KT/KT) (MB) (FT/S) (FT/S) BRANDYWINE LGT 1542 78 140/ 7/ 8 1016.7R CAPE MAY NJ 1542 82 75 230/ 6/ 7 1015.9R LEWES DE 1542 83 74 70/ 7/ 8 1016.1S 15NM E FENWICK I 1550 76 74 200/ 12/ 12 1016.9S 2/ 5 2/ 6 OCEAN-CITY-INLET 1542 78 74 190/ 8/ 10 1017.2S WACHAPREAGUE VA 1542 80 80 170/ 9/ 11 1017.0S THOMAS POINT MD 1600 80 80 150/ 8/ 8 1016.8F GOOSES REEF MD 1600 81 150/ 10/ 12 1016.4 1 COVE POINT MD 1542 79 180/ 9/ 10 1016.8S SOLOMONS ISLAND 1542 81 81 110/ 4/ 5 1015.9S BISHOPS HEAD MD 1542 80 83 200/ 8/ 9 1017.1R POTOMAC MD 1600 81 82 180/ 4/ 6 1016.6 0 CAMBRIDGE MD 1542 88 82 1017.2F LEWISETTA VA 1536 82 81 170/ 6/ 8 1016.3S RAPPAHANNOCK LGT 1548 190/ 12/ 13 1017.6S STINGRAY PT 1600 82 81 240/ 6/ 8 1017.6 1 YORK RVR RNG VA 1536 81 210/ 6/ 6 1017.6S YORKTOWN VA 1536 82 81 250/ 5/ 7 1016.6R DOMINION TERM VA 1536 80 210/ 3/ 4 1017.3F KIPTOPEKE VA 1548 79 190/ 6/ 7 N/A CAPE HENRY VA 1536 83 200/ 5/ 9 1015.6F WILLOUBY STN VA 1536 80 240/ 5/ 6 1016.4S S CRANEY ISL VA 1536 83 200/ 5/ 8 1017.0F CAPE HENRY BUOY 1600 79 N/A 2/11 1ST LANDING BUOY 1600 81 180/ 4/ 6 1016.9 1/ 4 64NM E OF VA BCH 1550 77 76 200/ 6/ 8 1018.7R 2/11 2/11 DUCK PIER NC 1536 81 74 240/ 6/ 8 1017.7S 44100 DUCK FRF 1545 78 N/A 2/12 2/12 44056 DUCK FRF 1600 78 N/A 2/12 2/12 OREGON INLET NC 1536 81 81 180/ 11/ 12 1018.2F HATTERAS NC 1536 82 81 170/ 6/ 9 1018.4F DIAMOND SHLS NC 1550 180/ 10/ 14 1018.9F 2/11 2/11 CAPE LOOKOUT NC 1600 160/ 8/ 9 1018.6S $$